FW2486 Weather Reports


Display with metric or nautical units.
time (UTC)temp
F
wind
direction
speed
MPH
gust
MPH
rain 1hr
in
rain 24hr
in
rain mn
in
humidity
%
barometer
mb
20260509021642 62 207 6.0 13.0 0.00 2.39 2.39 49 1023.9
20260509020149 63 208 8.0 17.0 0.00 2.39 2.39 47 1023.7
20260509014533 64 211 7.0 18.0 0.00 2.39 2.39 45 1023.5
20260509013035 65 207 9.0 20.0 0.00 2.39 2.39 43 1023.5
20260509010107 66 213 6.0 18.0 0.00 2.39 2.39 39 1023.4
20260509004532 66 205 9.0 26.0 0.00 2.39 2.39 38 1023.3
20260509001537 68 204 7.0 21.0 0.00 2.39 2.39 34 1022.9
20260508234535 68 215 8.0 23.0 0.00 2.39 2.39 34 1022.9
20260508233035 68 204 6.0 16.0 0.00 2.39 2.39 32 1023.0
20260508231533 69 210 8.0 20.0 0.00 2.39 2.39 32 1022.9
20260508230035 69 202 6.0 18.0 0.00 2.39 2.39 31 1022.8
20260508224535 69 208 9.0 20.0 0.00 2.39 2.39 30 1022.8
20260508223143 69 206 7.0 17.0 0.00 2.39 2.39 30 1022.7
20260508221537 68 211 7.0 17.0 0.00 2.39 2.39 30 1022.6
20260508214535 68 232 7.0 18.0 0.00 2.39 2.39 30 1022.7
20260508213110 68 219 8.0 21.0 0.00 2.39 2.39 30 1022.8
20260508211535 67 222 8.0 18.0 0.00 2.39 2.39 31 1022.7
20260508210031 67 211 11.0 31.0 0.00 2.39 2.39 31 1022.6
20260508204536 66 213 12.0 30.0 0.00 2.39 2.39 32 1022.6
20260508201536 65 200 13.0 32.0 0.00 2.39 2.39 34 1022.6
20260508200034 65 196 10.0 21.0 0.00 2.39 2.39 35 1022.5
20260508193034 64 189 9.0 20.0 0.00 2.39 2.39 37 1022.6
20260508191534 64 179 9.0 16.0 0.00 2.39 2.39 38 1022.5
20260508190140 63 182 8.0 18.0 0.00 2.39 2.39 40 1022.5
20260508184642 59 330 7.0 16.0 0.00 2.39 2.39 53 1022.4
20260508183033 58 325 5.0 18.0 0.00 2.39 2.39 56 1022.3
20260508181537 57 343 5.0 12.0 0.00 2.39 2.39 54 1022.1
20260508180035 56 326 4.0 12.0 0.00 2.39 2.39 56 1022.1
20260508174535 56 339 3.0 9.0 0.00 2.39 2.39 55 1022.1
20260508173030 57 275 4.0 15.0 0.00 2.39 2.39 50 1022.0
20260508171535 57 171 3.0 13.0 0.00 2.39 2.39 52 1021.8
20260508170035 56 160 3.0 10.0 0.00 2.39 2.39 54 1021.8
20260508163150 57 189 5.0 12.0 0.00 2.39 2.39 52 1021.9
20260508161535 56 262 9.0 20.0 0.00 2.39 2.39 52 1022.0
20260508160035 57 255 9.0 21.0 0.00 2.39 2.39 52 1022.0
20260508154532 57 237 8.0 16.0 0.00 2.39 2.39 53 1022.0
20260508153035 57 231 7.0 18.0 0.00 2.39 2.39 56 1021.9
20260508150029 57 218 6.0 13.0 0.00 2.39 2.39 59 1021.5
20260508143033 56 197 3.0 11.0 0.00 2.39 2.39 56 1021.0
20260508141531 56 171 2.0 20.0 0.00 2.39 2.39 56 1021.0
20260508140151 56 183 4.0 11.0 0.00 2.39 2.39 56 1020.8
20260508134536 56 168 5.0 55.0 0.00 2.39 2.39 56 1020.6
20260508133036 56 181 5.0 14.0 0.00 2.39 2.39 57 1020.5
20260508131535 56 181 4.0 8.0 0.00 2.39 2.39 59 1020.4
20260508124532 55 153 5.0 11.0 0.00 2.39 2.39 65 1020.2
20260508121642 47 128 5.0 26.0 0.00 2.39 2.39 77 1019.9
20260508120142 45 157 2.0 17.0 0.00 2.39 2.39 76 1019.8
20260508114532 45 173 4.0 70.0 0.00 2.39 2.39 74 1019.7
20260508113035 45 166 6.0 110.0 0.00 2.39 2.39 74 1019.6
20260508111537 45 154 11.0 159.0 2.39 2.39 2.39 72 1019.5
20260508110032 46 245 21.0 175.0 2.39 2.39 2.39 71 1019.4
20260508104532 44 201 6.0 109.0 2.39 2.39 2.39 72 1019.5
20260508103035 44 230 7.0 56.0 2.39 2.39 0.00 72 1019.5
20260508101534 44 195 1.0 74.0 0.00 0.00 0.00 69 1019.6
20260508094533 47 228 9.0 99.0 0.00 0.00 0.00 61 1019.6
20260508093032 48 170 4.0 10.0 0.00 0.00 0.00 61 1019.5
20260508091535 48 145 5.0 11.0 0.00 0.00 0.00 60 1019.5
20260508084533 48 145 5.0 8.0 0.00 0.00 0.00 61 1019.5
20260508083142 47 149 4.0 9.0 0.00 0.00 0.00 62 1019.5
20260508081529 47 140 5.0 18.0 0.00 0.00 0.00 62 1019.5
20260508080035 49 166 2.0 4.0 0.00 0.00 0.00 59 1019.5
20260508073107 51 143 9.0 68.0 0.00 0.00 0.00 56 1019.5
20260508071536 51 142 6.0 29.0 0.00 0.00 0.00 54 1019.5
20260508070036 53 158 4.0 20.0 0.00 0.00 0.00 52 1019.6
20260508064644 54 147 5.0 10.0 0.00 0.00 0.00 50 1019.6
20260508063035 55 139 5.0 9.0 0.00 0.00 0.00 48 1019.7
20260508061532 55 132 5.0 7.0 0.00 0.00 0.00 47 1019.7
20260508060034 56 136 5.0 14.0 0.00 0.00 0.00 45 1019.8
20260508054536 57 141 4.0 8.0 0.00 0.00 0.00 43 1019.8
20260508053034 57 142 5.0 9.0 0.00 0.00 0.00 42 1019.8
20260508050146 58 146 6.0 10.0 0.00 0.00 0.00 40 1019.8
20260508044534 58 150 4.0 8.0 0.00 0.00 0.00 41 1019.7
20260508043029 58 157 4.0 11.0 0.00 0.00 0.00 40 1019.6
20260508041534 58 156 4.0 8.0 0.00 0.00 0.00 38 1019.5
20260508040033 59 171 4.0 8.0 0.00 0.00 0.00 36 1019.3
20260508034534 59 143 6.0 17.0 0.00 0.00 0.00 33 1019.1
20260508033030 60 152 5.0 10.0 0.00 0.00 0.00 31 1018.9
20260508031532 62 160 4.0 12.0 0.00 0.00 0.00 27 1018.8
20260508030143 62 164 4.0 8.0 0.00 0.00 0.00 26 1018.9
20260508024534 65 162 3.0 10.0 0.00 0.00 0.00 26 1018.8
20260508023034 66 169 7.0 24.0 0.00 0.00 0.00 25 1018.7